Regional Weather Roundup
Issued by NWS Boston, MA

Current Version | Previous Version | Text Only | Print | Product List | Glossary Off
Versions: 1 2 3 4 5 6 7 8 9 10 11 12 13 14 15 16 17 18 19 20 21 22 23 24 25 26 27 28 29 30 31 32 33 34 35 36 37 38 39 40 41 42 43 44 45 46 47 48 49 50
000 ASUS41 KBOX 220810 RWRBOX REGIONAL WEATHER ROUNDUP NATIONAL WEATHER SERVICE TAUNTON MA 400 AM EDT SAT APR 22 2017 NOTE: "FAIR" INDICATES FEW OR NO CLOUDS BELOW 12,000 FEET WITH NO SIGNIFICANT WEATHER AND/OR OBSTRUCTIONS TO VISIBILITY. MAZALL-220900- EASTERN MASSACHUSETTS CITY SKY/WX TMP DP RH WIND PRES REMARKS BOSTON DRIZZLE 43 43 100 N12 29.98R FOG BEVERLY CLOUDY 43 42 97 NE8 29.97R FOG LAWRENCE CLOUDY 43 41 93 NE12 30.00R FOG BEDFORD CLOUDY 43 40 89 N7 29.97R FOG BLUE HILL N/A 42 40 92 N10G20 29.93R NORWOOD CLOUDY 45 43 93 NE6 29.95S FOG MARSHFIELD FOG 45 45 100 VRB7 29.94S VSB 1 PLYMOUTH CLOUDY 44 43 96 N10 29.95R FOG TAUNTON CLOUDY 45 43 93 N6 29.94R FOG NEW BEDFORD CLOUDY 46 44 93 N7 29.92R FOG $$ MAZALL-220900- CAPE COD AND THE ISLANDS CITY SKY/WX TMP DP RH WIND PRES REMARKS FALMOUTH N/A N/A N/A N/A MISG N/A HYANNIS LGT RAIN 47 46 97 N6 29.89F FOG CHATHAM LGT RAIN 47 46 97 VRB3 29.92R FOG PROVINCETOWN CLOUDY 44 43 96 NE12 29.94F FOG NANTUCKET CLOUDY 47 46 97 E7 29.87F FOG MARTHAS VNYRD LGT RAIN 50 48 93 NE9 29.90R FOG $$ MAZALL-220900- CENTRAL AND WESTERN MASSACHUSETTS CITY SKY/WX TMP DP RH WIND PRES REMARKS WORCESTER FOG 39 38 96 NE9 29.94S VSB 1/2 FITCHBURG CLOUDY 43 41 93 N7 29.98S ORANGE CLOUDY 42 41 96 NE5 29.95S SPRINGFIELD CLOUDY 44 42 94 NE8 29.93F WESTFIELD CLOUDY 44 44 100 N7 29.94F NORTH ADAMS CLOUDY 45 41 86 SE6 29.93F PITTSFIELD CLOUDY 43 42 97 CALM 29.91F FOG $$ RIZALL-220900- RHODE ISLAND CITY SKY/WX TMP DP RH WIND PRES REMARKS PROVIDENCE CLOUDY 46 46 100 N10 29.93R FOG NEWPORT LGT RAIN 46 46 100 N9 29.91S FOG SMITHFIELD LGT RAIN 43 43 100 N10 29.94S FOG WESTERLY CLOUDY 49 48 97 N6 29.91R FOG $$ CTZALL-220900- CONNECTICUT CITY SKY/WX TMP DP RH WIND PRES REMARKS BRADLEY INTL DRIZZLE 45 44 97 N10 29.94F FOG HARTFORD CLOUDY 46 44 93 N6 29.93F FOG BRIDGEPORT CLOUDY 51 48 89 NE6 29.91F DANBURY CLOUDY 48 48 100 N5 29.94S GROTON CLOUDY 49 47 93 N10 29.91S FOG NEW HAVEN CLOUDY 49 48 97 N8 29.91F CHESTER CLOUDY 48 48 100 CALM 29.91S FOG MERIDEN CLOUDY 48 45 89 N6 29.93F FOG WILLIMANTIC CLOUDY 47 45 93 N7 29.93F OXFORD CLOUDY 46 43 87 NE9 29.93F $$ MEZ002-015-021-024-NHZ003-005-008-011-012-014-VTZ005-008-220900- NORTHERN NEW ENGLAND CITY SKY/WX TMP DP RH WIND PRES REMARKS PORTLAND ME LGT RAIN 39 37 92 E13 30.03F FOG WCI 31 BANGOR ME LGT RAIN 36 34 92 E3 30.07S CONCORD NH CLOUDY 39 37 92 N5 30.00S MANCHESTER NH CLOUDY 41 38 89 VRB3 29.98S FOG NASHUA NH LGT RAIN 41 41 100 N5 30.00R PORTSMOUTH NH LGT RAIN 41 40 96 NE10 29.98S FOG JAFFREY NH CLOUDY 40 40 100 CALM 29.96S KEENE NH CLOUDY 42 38 85 VRB5 29.97S BURLINGTON VT CLOUDY 48 44 86 CALM 29.91S MT. WASHINGTON FOG 32 32 100 W29 N/A VSB 0 WCI 18 $$ NYZ052-076-220900- EASTERN NEW YORK CITY SKY/WX TMP DP RH WIND PRES REMARKS ALBANY CLOUDY 49 47 93 CALM 29.93F NEW YORK CITY FOG 50 48 93 NE6 29.89F VSB 1/4 $$ ANZALL-220900- MARINE OBSERVATIONS STATION/POSITION TIME TEMP WIND PRES VSBY WAVE AIR SEA DIR/SP/G HT/PER (UTC) (F) (DEG/KT/KT) (MB) (MI) (FT/S) BOSTON BUOY 0650 44 45 30/ 14/ 17 1013.6 5/ 7 BUZZARDS BAY 0700 47 20/ 9/ 10 1012.8F NANTUCKET SOUND 0750 48 1011.9F 2/ 5 MASS BAY-STELLWA 0704 44 44 40/ 16/ 16 1013.8F 5/ 7 ISLE OF SHOALS 0700 41 40/ 19/ 21 1014.8F S OF BLOCK IS 0755 46 N/A 5/ 7 $$ ......................KEY......................... SKY/WX - SKY CONDITION/PRESENT WEATHER TMP - TEMPERATURE IN FAHRENHEIT DWPT - DEWPOINT IN FAHRENHEIT RH - RELATIVE HUMIDITY IN PERCENT WIND - DIRECTION AND SPEED IN MPH PRES - MEAN SEA LEVEL PRESSURE IN INCHES OF HG WCI - WIND CHILL INDEX VSB - VISIBILITY IN MILES HX - HEAT INDEX TC - TEMPERATURE IN CELSIUS VRB - VARIABLE WIND DIRECTION N/A - NOT AVAILABLE

USA.gov is the U.S. government's official web portal to all federal, state and local government web resources and services.